{"data":{"norad_id":26464,"epoch":"2026-08-30T16:25:03.578016Z","epoch_age_seconds":1809574,"freshness":"OLD","line1":"1 26464U 00045B   26242.68406919  .00218879 -14532-2  00000+0 0  9992","line2":"2 26464 149.4895  65.8568 9133957 283.7320   2.2648  0.44936442 20644","mean_motion":0.44936442,"eccentricity":0.9133957,"inclination_deg":149.4895,"raan_deg":65.8568,"arg_perigee_deg":283.732,"mean_anomaly_deg":2.2648,"bstar":0,"rev_number":2064,"period_min":3204.526072625,"perigee_km":-142.57633699447,"apogee_km":131387.48156263,"semimajor_km":72000.58961282,"source":"CELESTRAK","updated_at":"2026-09-02T09:01:04.722653Z"}}